SB KEPS @ AMSAT $ORB09022.O Orbital Elements 09022.OSCAR
HR AMSAT ORBITAL ELEMENTS FOR OSCAR SATELLITES FROM WA5QGD FORT WORTH,TX January 22, 2009 Send Subscribe/unsubscribe to KEPS at http://www.amsat.org/mailman/listinfo/keps BID: ORB09022.O TO ALL RADIO AMATEURS BT
Satellite: AO-07 Catalog number: 07530 Epoch time: 09022.68149561 Element set: 384 Inclination: 101.4430 deg RA of node: 052.6214 deg Eccentricity: 0.0011800 Arg of perigee: 193.1742 deg Mean anomaly: 166.9014 deg Mean motion: 12.53575091 rev/day Decay rate: -2.7e-07 rev/day^2 Epoch rev: 56448 Checksum: 273
Satellite: AO-10 Catalog number: 14129 Epoch time: 09021.61221901 Element set: 0613 Inclination: 026.0162 deg RA of node: 175.2177 deg Eccentricity: 0.5966110 Arg of perigee: 191.6952 deg Mean anomaly: 143.6537 deg Mean motion: 02.05868760 rev/day Decay rate: 1.6e-07 rev/day^2 Epoch rev: 19260 Checksum: 277
Satellite: UO-11 Catalog number: 14781 Epoch time: 09021.81278796 Element set: 0868 Inclination: 098.1294 deg RA of node: 064.7908 deg Eccentricity: 0.0010213 Arg of perigee: 089.5480 deg Mean anomaly: 270.6938 deg Mean motion: 14.79690161 rev/day Decay rate: 6.9e-07 rev/day^2 Epoch rev: 33618 Checksum: 339
Satellite: RS-15 Catalog number: 23439 Epoch time: 09021.81607228 Element set: 0209 Inclination: 064.8138 deg RA of node: 141.5096 deg Eccentricity: 0.0145947 Arg of perigee: 080.1206 deg Mean anomaly: 281.6159 deg Mean motion: 11.27553551 rev/day Decay rate: -3.9e-07 rev/day^2 Epoch rev: 57961 Checksum: 306
Satellite: FO-29 Catalog number: 24278 Epoch time: 09021.79935838 Element set: 0980 Inclination: 098.5758 deg RA of node: 275.3389 deg Eccentricity: 0.0350853 Arg of perigee: 009.7114 deg Mean anomaly: 351.0579 deg Mean motion: 13.52941739 rev/day Decay rate: -2.6e-07 rev/day^2 Epoch rev: 61395 Checksum: 358
Satellite: SO-33 Catalog number: 25509 Epoch time: 09022.74027532 Element set: 373 Inclination: 031.4291 deg RA of node: 154.9195 deg Eccentricity: 0.0354319 Arg of perigee: 146.8763 deg Mean anomaly: 215.4561 deg Mean motion: 14.28237758 rev/day Decay rate: 3.43e-06 rev/day^2 Epoch rev: 53502 Checksum: 303
Satellite: AO-40 Catalog number: 26609 Epoch time: 09022.34456309 Element set: 182 Inclination: 008.5706 deg RA of node: 036.7997 deg Eccentricity: 0.7943798 Arg of perigee: 168.0091 deg Mean anomaly: 239.4707 deg Mean motion: 01.25583688 rev/day Decay rate: -2.1e-07 rev/day^2 Epoch rev: 3779 Checksum: 343
Satellite: VO-52 Catalog number: 28650 Epoch time: 09021.83109999 Element set: 0136 Inclination: 097.7637 deg RA of node: 088.1162 deg Eccentricity: 0.0027877 Arg of perigee: 145.6309 deg Mean anomaly: 214.6688 deg Mean motion: 14.81547191 rev/day Decay rate: 3.88e-06 rev/day^2 Epoch rev: 20097 Checksum: 345
Satellite: PO-63 Catalog number: 29712 Epoch time: 09022.77391762 Element set: 170 Inclination: 097.8494 deg RA of node: 082.5337 deg Eccentricity: 0.0014861 Arg of perigee: 031.5549 deg Mean anomaly: 328.6546 deg Mean motion: 14.80419176 rev/day Decay rate: 4.78e-06 rev/day^2 Epoch rev: 10995 Checksum: 337
/EX SB KEPS @ AMSAT $ORB09022.D Orbital Elements 09022.MICROS
HR AMSAT ORBITAL ELEMENTS FOR THE MICROSATS FROM WA5QGD FORT WORTH,TX January 22, 2009 Send Subscribe/unsubscribe to KEPS at http://www.amsat.org/mailman/listinfo/keps BID: ORB09022.D TO ALL RADIO AMATEURS BT
Satellite: AO-16 Catalog number: 20439 Epoch time: 09022.71076596 Element set: 516 Inclination: 098.2595 deg RA of node: 357.8814 deg Eccentricity: 0.0010019 Arg of perigee: 241.8111 deg Mean anomaly: 118.2071 deg Mean motion: 14.31814399 rev/day Decay rate: 3.0e-07 rev/day^2 Epoch rev: 99233 Checksum: 297
Satellite: LO-19 Catalog number: 20442 Epoch time: 09021.81345493 Element set: 0441 Inclination: 098.2248 deg RA of node: 004.8401 deg Eccentricity: 0.0010996 Arg of perigee: 241.9986 deg Mean anomaly: 118.0082 deg Mean motion: 14.32050859 rev/day Decay rate: -4.0e-07 rev/day^2 Epoch rev: 99236 Checksum: 296
Satellite: AO-27 Catalog number: 22825 Epoch time: 09021.83249860 Element set: 0159 Inclination: 098.4168 deg RA of node: 340.0165 deg Eccentricity: 0.0008088 Arg of perigee: 342.1473 deg Mean anomaly: 017.9442 deg Mean motion: 14.29257017 rev/day Decay rate: 1.4e-07 rev/day^2 Epoch rev: 79900 Checksum: 304
Satellite: IO-26 Catalog number: 22826 Epoch time: 09022.82831570 Element set: 877 Inclination: 098.4099 deg RA of node: 341.7910 deg Eccentricity: 0.0008720 Arg of perigee: 334.8428 deg Mean anomaly: 025.2336 deg Mean motion: 14.29507697 rev/day Decay rate: 1.0e-07 rev/day^2 Epoch rev: 79924 Checksum: 324
Satellite: GO-32 Catalog number: 25397 Epoch time: 09021.83512478 Element set: 0804 Inclination: 098.3426 deg RA of node: 051.9162 deg Eccentricity: 0.0000990 Arg of perigee: 010.5083 deg Mean anomaly: 349.6112 deg Mean motion: 14.23153971 rev/day Decay rate: 3.8e-07 rev/day^2 Epoch rev: 54731 Checksum: 288
Satellite: NO-44 Catalog number: 26931 Epoch time: 09021.64230249 Element set: 0081 Inclination: 067.0516 deg RA of node: 081.8808 deg Eccentricity: 0.0005727 Arg of perigee: 260.8232 deg Mean anomaly: 099.2209 deg Mean motion: 14.29544892 rev/day Decay rate: -1.79e-06 rev/day^2 Epoch rev: 38163 Checksum: 310
Satellite: SO-50 Catalog number: 27607 Epoch time: 09021.79148121 Element set: 0796 Inclination: 064.5581 deg RA of node: 109.7168 deg Eccentricity: 0.0080878 Arg of perigee: 236.9116 deg Mean anomaly: 122.4231 deg Mean motion: 14.71410185 rev/day Decay rate: -1.6e-07 rev/day^2 Epoch rev: 32713 Checksum: 296
Satellite: CO-55 Catalog number: 27844 Epoch time: 09021.49568545 Element set: 0494 Inclination: 098.7155 deg RA of node: 032.7205 deg Eccentricity: 0.0009415 Arg of perigee: 203.3621 deg Mean anomaly: 156.7134 deg Mean motion: 14.20618200 rev/day Decay rate: 1.0e-07 rev/day^2 Epoch rev: 28843 Checksum: 288
Satellite: CO-57 Catalog number: 27848 Epoch time: 09021.52335094 Element set: 0441 Inclination: 098.7168 deg RA of node: 031.8141 deg Eccentricity: 0.0009175 Arg of perigee: 209.0030 deg Mean anomaly: 151.0635 deg Mean motion: 14.20423380 rev/day Decay rate: 1.3e-07 rev/day^2 Epoch rev: 28840 Checksum: 271
Satellite: AO-51 Catalog number: 28375 Epoch time: 09021.55457078 Element set: 297 Inclination: 098.0568 deg RA of node: 039.6726 deg Eccentricity: 0.0082932 Arg of perigee: 210.1396 deg Mean anomaly: 149.5009 deg Mean motion: 14.40630894 rev/day Decay rate: 1.0e-08 rev/day^2 Epoch rev: 23984 Checksum: 323
Satellite: CO-56 Catalog number: 28941 Epoch time: 09022.70205890 Element set: 748 Inclination: 098.1243 deg RA of node: 171.8222 deg Eccentricity: 0.0124173 Arg of perigee: 316.7343 deg Mean anomaly: 042.4246 deg Mean motion: 15.69841894 rev/day Decay rate: 2.3493e-04 rev/day^2 Epoch rev: 16432 Checksum: 315
Satellite: CP3 Catalog number: 31128 Epoch time: 09022.68266937 Element set: 537 Inclination: 098.0130 deg RA of node: 082.5035 deg Eccentricity: 0.0103364 Arg of perigee: 016.6316 deg Mean anomaly: 343.8233 deg Mean motion: 14.52011654 rev/day Decay rate: -4.7e-07 rev/day^2 Epoch rev: 9378 Checksum: 281
Satellite: CP4 Catalog number: 31132 Epoch time: 09022.71858593 Element set: 516 Inclination: 098.0168 deg RA of node: 085.8022 deg Eccentricity: 0.0086103 Arg of perigee: 007.0357 deg Mean anomaly: 353.2024 deg Mean motion: 14.55177024 rev/day Decay rate: -5.7e-07 rev/day^2 Epoch rev: 9387 Checksum: 287
Satellite: CO-65 Catalog number: 32785 Epoch time: 09021.89691699 Element set: 270 Inclination: 097.9665 deg RA of node: 086.9371 deg Eccentricity: 0.0015627 Arg of perigee: 143.2182 deg Mean anomaly: 217.0092 deg Mean motion: 14.81441298 rev/day Decay rate: 1.63e-06 rev/day^2 Epoch rev: 3978 Checksum: 342
/EX SB KEPS @ AMSAT $ORB09022.W Orbital Elements 09022.WEATHER
HR AMSAT ORBITAL ELEMENTS FOR WEATHER SATELLITES FROM WA5QGD FORT WORTH,TX January 22, 2009 Send Subscribe/unsubscribe to KEPS at http://www.amsat.org/mailman/listinfo/keps BID: ORB09022.W TO ALL RADIO AMATEURS BT
Satellite: NOAA-10 Catalog number: 16969 Epoch time: 09021.79240997 Element set: 0469 Inclination: 098.7074 deg RA of node: 049.1348 deg Eccentricity: 0.0011509 Arg of perigee: 263.2466 deg Mean anomaly: 096.7382 deg Mean motion: 14.27378442 rev/day Decay rate: 5.2e-07 rev/day^2 Epoch rev: 16262 Checksum: 331
Satellite: NOAA-11 Catalog number: 19531 Epoch time: 09021.82456240 Element set: 0485 Inclination: 098.7886 deg RA of node: 114.0308 deg Eccentricity: 0.0011577 Arg of perigee: 162.0609 deg Mean anomaly: 198.0972 deg Mean motion: 14.14885614 rev/day Decay rate: -2.02e-06 rev/day^2 Epoch rev: 04882 Checksum: 304
Satellite: NOAA-12 Catalog number: 21263 Epoch time: 09021.97817405 Element set: 0998 Inclination: 098.7724 deg RA of node: 029.9687 deg Eccentricity: 0.0011831 Arg of perigee: 207.7142 deg Mean anomaly: 152.3415 deg Mean motion: 14.25563640 rev/day Decay rate: 2.0e-07 rev/day^2 Epoch rev: 91956 Checksum: 311
Satellite: MET-3/5 Catalog number: 21655 Epoch time: 09021.90864912 Element set: 0605 Inclination: 082.5527 deg RA of node: 309.8472 deg Eccentricity: 0.0012840 Arg of perigee: 182.5691 deg Mean anomaly: 177.5367 deg Mean motion: 13.17017901 rev/day Decay rate: 5.1e-07 rev/day^2 Epoch rev: 83837 Checksum: 310
Satellite: MET-2/21 Catalog number: 22782 Epoch time: 09022.32167056 Element set: 358 Inclination: 082.5488 deg RA of node: 297.7269 deg Eccentricity: 0.0023563 Arg of perigee: 038.7374 deg Mean anomaly: 321.5466 deg Mean motion: 13.83634764 rev/day Decay rate: 3.2e-07 rev/day^2 Epoch rev: 77743 Checksum: 329
Satellite: OKEAN-4 Catalog number: 23317 Epoch time: 09021.78827687 Element set: 0808 Inclination: 082.5398 deg RA of node: 111.1117 deg Eccentricity: 0.0023538 Arg of perigee: 124.3689 deg Mean anomaly: 235.9757 deg Mean motion: 14.82668647 rev/day Decay rate: 2.6e-07 rev/day^2 Epoch rev: 77067 Checksum: 339
